Current Version              Previous Version:    01  02  03  04  05  06  07  08  09  10  11  12  13  14  15  16  17  18  19  20  21  22  23  24  25  26  27  28  29  30  
   31  32  33  34  35  36  37  38  39  40  41  42  43  44  45  46  47  48  49  50  51  52  53  54  55  56  57  58  59  60  

[Printable]
372
ASUS44 KFWD 250301
RWRTX
NORTH TEXAS HOURLY WEATHER ROUNDUP
NATIONAL WEATHER SERVICE FORT WORTH TX
1000 PM CDT THU JUL 24 2014

NOTE: "FAIR" INDICATES FEW OR NO CLOUDS BELOW 12,000 FEET WITH NO
SIGNIFICANT WEATHER AND/OR OBSTRUCTIONS TO VISIBILITY.

TXZ118-119-250400-
DALLAS/FORT WORTH METROPLEX

CITY           SKY/WX    TMP DP  RH WIND       PRES   REMARKS
DFW AIRPORT    CLEAR     85  67  54 SE10      29.98R
DALLAS LOVE    CLEAR     86  69  56 E9        29.98R HX  90
FTW MEACHAM    CLEAR     88  66  48 E9        29.97R HX  90
DAL-EXECUTIVE  CLEAR     84  68  58 SE7       29.98R
FTW-ALLIANCE   CLEAR     82  65  56 E7        29.98R
FTW-NAS-JRB    CLEAR     89  62  40 E7        30.01R
ARLINGTON      CLEAR     85  67  54 SE7       29.98R
GRAND PRAIRIE  CLEAR     86  65  50 E6        29.99R
ADDISON        CLEAR     86  66  51 SE7       29.99R
MESQUITE       CLEAR     80  69  69 E5        29.99
LANCASTER      CLEAR     79  66  64 CALM      29.99R
$$

TXZ091>094-102>105-117-120-121-131>134-250400-
NORTH CENTRAL TEXAS

CITY           SKY/WX    TMP DP  RH WIND       PRES   REMARKS
SHRMAN/DENISON CLEAR     83  67  59 SE8       30.00R
GAINESVILLE    CLEAR     79  68  69 SE5       30.00S
BRIDGEPORT     CLEAR     81  63  54 CALM      30.00R
DECATUR        CLEAR     82  65  56 E7        30.00R
DENTON         CLEAR     84  67  56 SE7       29.98R
MCKINNEY       CLEAR     81  70  69 E5        29.99R
ROCKWALL       CLEAR     81  71  71 SE6       29.98R
TERRELL        CLEAR     82  72  71 CALM      29.99R
WAXAHACHIE     CLEAR     80  65  59 E3        30.00R
CLEBURNE       CLEAR     84  68  58 E9        30.01R
GRANBURY       CLEAR     86  64  48 E6        29.99R
$$

TXZ083>090-098>101-113>116-127>130-139>142-154-155-250400-
WESTERN NORTH TEXAS

CITY           SKY/WX    TMP DP  RH WIND       PRES   REMARKS
WICHITA FALLS  CLEAR     83  72  69 SE9       29.97R
WF-KICKAPOO    CLEAR     84  70  63 SE6       29.99R
VERNON         PTCLDY    87  68  53 SE7       29.99R HX  90
ABILENE        CLEAR     87  64  46 SE10      30.02R
ABILENE-DYESS  CLEAR     87  66  49 SE12      30.01R
BRECKENRIDGE   CLEAR     88  63  42 SE6       29.99R
MINERAL WELLS  CLEAR     83  65  54 E5        29.97R
STEPHENVILLE   CLEAR     82  65  56 E3        30.03R
COMANCHE       CLEAR     82  67  60 S3        30.02R
BROWNWOOD      PTCLDY    81  66  61 E5        30.02R
COLEMAN        CLEAR     83  65  54 SE8       30.03R
$$

TXZ143>147-156>162-174-175-250400-
CENTRAL TEXAS

CITY           SKY/WX    TMP DP  RH WIND       PRES   REMARKS
WACO           CLEAR     82  69  64 SE6       29.97R
WACO-TSTC      CLEAR     81  64  57 E3        29.97R
WACO-MCGREGOR  CLEAR     82  66  57 SE6       29.99R
HILLSBORO      CLEAR     80  65  61 E6        29.99R
CORSICANA      CLEAR     80  69  69 SE6       30.00R
MEXIA          CLEAR     79  69  73 CALM      29.98R
TEMPLE         CLEAR     81  66  61 SE6       29.98S
KILLEEN        NOT AVBL
KILLEEN-SKYLRK CLEAR     84  66  54 SE7       29.99R
FORT HOOD      CLEAR     86  70  58 SE6       29.99R HX  90
HAMILTON       CLEAR     82  67  59 SE3       30.02R
LAMPASAS       CLEAR     82  70  67 CALM      30.00R
$$

TXZ095>097-106>112-122>126-135>138-148>153-164>167-250400-
EAST TEXAS

CITY           SKY/WX    TMP DP  RH WIND       PRES   REMARKS
PARIS          CLEAR     75  70  83 SE7       30.01R
CLARKSVILLE    CLEAR     76  73  87 CALM      30.00R
MOUNT PLEASANT CLEAR     75  72  88 CALM      30.01S
MINEOLA        CLEAR     75  73  94 CALM      30.01R
TYLER          CLEAR     79  72  79 E5        30.00R
LONGVIEW       CLEAR     76  71  85 CALM      29.99R
MARSHALL       CLEAR     76  73  91 CALM      30.02R
ATHENS         CLEAR     77  72  83 CALM      29.99R
JACKSONVILLE   CLEAR     79  71  77 CALM      30.02R
HENDERSON      CLEAR     77  72  84 CALM      30.00R
NACOGDOCHES    CLEAR     75  72  88 E3        30.00R
LUFKIN         CLEAR     81  73  76 CALM      29.98R
$$

SUPPLEMENTAL OBSERVATIONS (CENTRAL)

CITY           SKY/WX    TMP DP  RH WIND       PRES   REMARKS
$$

SUPPLEMENTAL OBSERVATIONS (WEST)

CITY           SKY/WX    TMP DP  RH WIND       PRES   REMARKS
$$

SUPPLEMENTAL OBSERVATIONS (EAST)

CITY           SKY/WX    TMP DP  RH WIND       PRES   REMARKS
$$

SUPPLEMENTAL OBSERVATIONS ARE A COLLECTION OF AUTOMATED INSTRUMENTS
THAT ARE MAINTAINED BY A VARIETY OF FEDERAL AND STATE AGENCIES.
CERTAIN ELEMENTS...SUCH AS HUMIDITY VALUES AND SUSTAINED WIND
SPEEDS...MAY BE APPROXIMATED.